AUA21G EDDF-LOWW

Flight info

Callsign AUA21G
Flight time N/A
Altitude 31000
Route CINDY8S/18 CINDY Z74 HAREM DCT ASLEP DCT TAKUT DCT DINKU L603 BESNI L605 MIQ DCT ALUTU DCT BIBAG Q104 AKIMA DCT MASUR MASUR3W
Aircraft A320/M-SDE3FGHIRWY/LB1

Departure

Time 2026-04-17 21:13
Airport Frankfurt Main Airport (EDDF)

Arrival

Time N/A
Airport Vienna International Airport (LOWW)
Time Latitude Longitude Altitude Speed Heading
2026-04-17 20:43 50.04752 8.56883 356 ft 0 kts 294°
2026-04-17 20:56 50.04745 8.56911 365 ft 4 kts 292°
2026-04-17 20:57 50.04734 8.56948 356 ft 4 kts 289°
2026-04-17 20:57 50.04733 8.56984 356 ft 4 kts 227°
2026-04-17 20:57 50.04748 8.57002 356 ft 0 kts 204°
2026-04-17 20:57 50.04735 8.56992 363 ft 4 kts 204°
2026-04-17 20:58 50.04710 8.56975 361 ft 4 kts 205°
2026-04-17 20:58 50.04685 8.56957 363 ft 4 kts 205°
2026-04-17 20:58 50.04661 8.56940 356 ft 4 kts 205°
2026-04-17 20:58 50.04654 8.56934 356 ft 0 kts 205°
2026-04-17 21:01 50.04653 8.56934 356 ft 1 kts 205°
2026-04-17 21:01 50.04632 8.56921 360 ft 5 kts 197°
2026-04-17 21:01 50.04595 8.56905 364 ft 6 kts 192°
2026-04-17 21:02 50.04549 8.56890 362 ft 10 kts 192°
2026-04-17 21:02 50.04483 8.56862 364 ft 10 kts 202°
2026-04-17 21:02 50.04442 8.56787 365 ft 10 kts 246°
2026-04-17 21:02 50.04417 8.56684 358 ft 11 kts 250°
2026-04-17 21:03 50.04390 8.56571 360 ft 12 kts 250°
2026-04-17 21:03 50.04362 8.56452 359 ft 12 kts 250°
2026-04-17 21:03 50.04345 8.56381 356 ft 0 kts 249°
2026-04-17 21:04 50.04331 8.56323 357 ft 14 kts 249°
2026-04-17 21:04 50.04294 8.56169 360 ft 17 kts 250°
2026-04-17 21:04 50.04247 8.55970 357 ft 22 kts 249°
2026-04-17 21:05 50.04199 8.55774 359 ft 22 kts 249°
2026-04-17 21:05 50.04153 8.55583 357 ft 19 kts 249°
2026-04-17 21:05 50.04102 8.55368 357 ft 23 kts 249°
2026-04-17 21:05 50.04050 8.55144 358 ft 22 kts 249°
2026-04-17 21:06 50.04018 8.55023 354 ft 0 kts 247°
2026-04-17 21:06 50.04014 8.55006 360 ft 5 kts 250°
2026-04-17 21:06 50.04011 8.54994 353 ft 1 kts 250°
2026-04-17 21:06 50.04004 8.54960 360 ft 4 kts 250°
2026-04-17 21:07 50.03991 8.54906 356 ft 6 kts 250°
2026-04-17 21:07 50.03973 8.54829 351 ft 5 kts 250°
2026-04-17 21:07 50.03970 8.54814 351 ft 2 kts 250°
2026-04-17 21:07 50.03957 8.54762 350 ft 6 kts 249°
2026-04-17 21:08 50.03940 8.54692 358 ft 8 kts 249°
2026-04-17 21:08 50.03920 8.54606 353 ft 9 kts 249°
2026-04-17 21:08 50.03896 8.54506 357 ft 11 kts 250°
2026-04-17 21:08 50.03867 8.54393 356 ft 12 kts 244°
2026-04-17 21:09 50.03821 8.54285 353 ft 12 kts 235°
2026-04-17 21:09 50.03786 8.54164 345 ft 13 kts 249°
2026-04-17 21:09 50.03754 8.54032 353 ft 14 kts 249°
2026-04-17 21:09 50.03718 8.53878 343 ft 17 kts 250°
2026-04-17 21:10 50.03670 8.53679 347 ft 22 kts 249°
2026-04-17 21:10 50.03615 8.53464 339 ft 23 kts 249°
2026-04-17 21:10 50.03572 8.53282 337 ft 8 kts 250°
2026-04-17 21:10 50.03549 8.53187 339 ft 13 kts 250°
2026-04-17 21:11 50.03506 8.53007 338 ft 21 kts 250°
2026-04-17 21:11 50.03454 8.52805 333 ft 11 kts 243°
2026-04-17 21:11 50.03432 8.52728 332 ft 10 kts 249°
2026-04-17 21:11 50.03379 8.52605 336 ft 16 kts 209°
2026-04-17 21:12 50.03280 8.52595 331 ft 15 kts 179°
2026-04-17 21:12 50.02876 8.52597 335 ft 105 kts 179°
2026-04-17 21:12 50.02022 8.52606 337 ft 169 kts 179°
2026-04-17 21:12 50.00751 8.52624 841 ft 193 kts 179°
2026-04-17 21:13 49.99226 8.52635 1567 ft 214 kts 179°
2026-04-17 21:13 49.97788 8.52703 2297 ft 225 kts 171°
2026-04-17 21:13 49.96430 8.53694 3269 ft 235 kts 138°
2026-04-17 21:13 49.95414 8.55846 3785 ft 236 kts 119°
2026-04-17 21:14 49.94598 8.58099 3958 ft 234 kts 118°
2026-04-17 21:14 49.94046 8.60459 4003 ft 239 kts 98°
2026-04-17 21:14 49.93939 8.63151 4014 ft 260 kts 92°
2026-04-17 21:14 49.93833 8.66047 4012 ft 264 kts 97°
2026-04-17 21:15 49.93312 8.68766 4191 ft 275 kts 117°
2026-04-17 21:15 49.92079 8.71240 5461 ft 278 kts 138°
2026-04-17 21:15 49.90605 8.72987 6973 ft 275 kts 144°
2026-04-17 21:15 49.89091 8.74790 8292 ft 279 kts 137°
2026-04-17 21:16 49.87845 8.77095 9482 ft 286 kts 123°
2026-04-17 21:16 49.86830 8.79882 10623 ft 297 kts 120°
2026-04-17 21:16 49.85795 8.82769 11254 ft 322 kts 120°
2026-04-17 21:16 49.84659 8.85925 11803 ft 347 kts 120°
2026-04-17 21:17 49.83386 8.89453 12610 ft 362 kts 120°
2026-04-17 21:17 49.82198 8.92737 13419 ft 368 kts 120°
2026-04-17 21:17 49.80933 8.96223 14345 ft 375 kts 120°
2026-04-17 21:17 49.79648 8.99749 15262 ft 380 kts 120°
2026-04-17 21:18 49.78328 9.03353 16149 ft 386 kts 120°
2026-04-17 21:18 49.77018 9.06957 16989 ft 392 kts 117°
2026-04-17 21:18 49.75959 9.10866 17816 ft 398 kts 107°
2026-04-17 21:18 49.75246 9.15034 18630 ft 403 kts 106°
2026-04-17 21:19 49.74169 9.18996 19415 ft 409 kts 119°
2026-04-17 21:19 49.72550 9.22622 20199 ft 414 kts 130°
2026-04-17 21:19 49.70604 9.25954 20971 ft 419 kts 132°
2026-04-17 21:19 49.68653 9.29324 21712 ft 424 kts 131°
2026-04-17 21:20 49.66692 9.32768 22402 ft 429 kts 131°